Wind_Speed
21 21 21 21 21 21 20 20 21 20 21 20 20 20 19 19 19 20 20 20 20 20 20 19 19 18 18 18 18 18 18 17 17 17 16 16 16 16 16 16 17 17 17
22 23 23 22 22 22 22 22 22 22 22 21 21 21 21 21 20 21 21 21 21 22 22 21 21 20 20 20 20 20 20 20 20 20 19 19 19 19 19 19 20 20 20
23 24 24 23 24 24 24 24 24 23 23 22 22 23 23 23 22 22 22 23 23 23 24 23 22 22 22 22 22 22 21 21 22 22 22 22 22 22 22 22 22 22 23
25 25 26 26 26 25 25 26 26 26 25 25 24 24 24 24 24 24 24 24 24 24 25 25 24 24 24 24 24 24 24 24 25 25 25 25 24 24 25 25 25 25 25
27 28 29 29 28 27 27 27 28 28 27 27 27 26 26 25 25 25 25 26 26 25 25 25 25 26 26 26 26 26 26 27 27 27 27 27 26 27 27 27 27 28 28
29 29 30 30 30 30 28 28 28 29 29 29 28 27 27 28 28 27 27 27 28 28 27 27 27 27 28 28 28 28 28 28 28 28 28 28 28 29 29 29 30 30 30
31 31 31 31 30 30 30 29 29 29 30 30 29 29 29 30 30 30 29 30 29 29 29 29 29 29 30 30 30 30 30 30 30 30 30 30 30 31 32 32 32 33 33
32 32 32 32 32 31 30 31 30 31 31 31 32 31 31 33 33 32 32 32 31 31 31 32 32 31 31 32 32 32 32 32 33 32 32 32 32 33 33 33 33 34 34
32 32 32 32 33 32 32 32 31 32 33 33 34 34 33 33 33 32 32 33 33 33 33 33 34 34 33 33 33 33 33 33 34 34 34 34 33 33 34 34 34 35 35
33 33 32 32 32 33 32 32 32 31 33 34 34 34 33 32 32 32 33 34 34 34 35 35 36 35 35 35 35 35 35 35 35 35 36 35 35 35 35 35 35 36 37
33 33 33 32 32 33 32 33 33 32 33 32 32 33 33 33 32 33 33 34 35 35 35 36 37 38 38 37 36 36 36 35 36 36 36 36 37 37 36 36 37 38 38
33 33 33 33 34 34 34 34 34 33 33 33 33 33 33 34 33 33 34 34 36 36 36 37 37 38 39 38 37 36 36 35 36 36 37 37 37 38 38 38 38 39 39
32 32 32 32 32 33 34 35 34 33 33 33 33 34 34 35 36 35 35 36 36 37 37 38 38 37 37 37 37 38 37 37 37 38 38 38 38 38 38 39 39 39 40
31 31 31 31 32 33 33 34 34 34 34 35 35 35 35 36 37 37 37 37 37 38 39 39 38 38 38 38 38 39 39 39 38 39 39 40 39 39 39 39 39 39 39
30 30 30 31 32 32 32 33 33 32 33 34 35 35 36 36 37 38 39 39 39 38 38 38 38 38 38 38 38 39 39 40 39 39 40 40 40 40 40 40 40 40 39
30 30 30 30 30 31 31 32 32 32 32 33 34 35 35 35 35 37 38 38 38 38 37 37 36 37 38 38 38 38 39 39 39 39 39 40 40 40 39 39 39 39 39
29 29 29 29 29 30 30 30 31 31 31 32 32 32 34 35 35 36 36 37 37 37 36 36 36 37 37 37 38 38 38 38 39 38 39 39 39 39 39 38 38 38 37
29 29 29 28 28 28 29 29 30 30 31 31 31 31 32 33 35 35 36 36 37 37 37 36 37 37 37 37 37 38 38 39 38 38 37 37 37 38 38 37 36 35 35
27 27 28 28 27 27 28 28 29 29 29 29 29 29 30 32 33 33 34 35 36 36 36 36 36 36 36 37 37 38 38 38 38 38 37 36 36 36 36 35 34 33 32
26 25 25 26 26 26 26 26 26 26 26 27 27 27 27 28 29 31 32 32 32 32 32 32 32 33 34 35 35 36 37 38 37 37 36 35 34 34 33 33 31 31 31
24 24 24 24 24 23 24 24 24 23 24 24 25 25 25 26 27 27 28 28 29 29 29 29 29 30 31 32 33 34 34 34 33 33 32 31 31 30 29 29 29 29 29
22 21 21 21 21 21 21 21 21 21 21 22 22 23 23 23 23 23 25 25 26 27 27 27 28 27 28 29 30 31 31 29 29 28 28 28 27 26 26 26 26 26 25
20 19 19 19 19 19 20 20 20 20 20 20 20 21 21 21 21 21 21 21 22 23 23 24 25 25 25 26 26 26 26 25 24 24 24 24 24 24 24 24 24 23 23
17 16 17 17 17 18 18 18 18 18 18 18 18 19 19 19 19 18 18 18 19 19 20 21 22 22 22 22 21 20 20 19 19 19 20 20 21 22 22 21 21 21 21
14 14 14 15 15 15 16 15 15 15 15 16 16 16 16 16 15 15 15 15 16 17 18 18 18 18 18 17 17 17 16 16 16 17 18 18 18 19 19 19 19 19 19
11 11 11 11 11 12 12 12 12 12 12 13 12 12 12 12 12 12 12 13 13 13 14 14 14 14 15 14 13 13 13 14 15 15 16 16 16 17 17 16 16 16 16
Wind_Direction
260 261 263 265 266 267 266 265 265 267 267 264 261 259 258 256 257 258 257 254 253 252 253 254 256 257 258 258 258 258 258 256 257 258 259 261 260 258 260 263 264 263 264
259 260 263 266 267 267 266 265 264 265 266 264 261 259 257 256 256 257 256 254 254 253 255 256 257 257 258 259 258 260 260 257 258 258 260 261 261 261 262 264 265 266 267
261 262 260 263 266 266 267 264 264 264 263 262 260 259 258 257 256 258 257 256 254 253 255 256 257 258 259 259 259 259 262 261 260 259 261 262 263 263 264 265 266 268 268
264 266 263 263 265 265 267 264 264 263 263 262 260 260 259 258 256 257 257 256 255 255 255 255 257 258 258 259 260 260 263 262 262 261 262 263 264 264 265 266 267 269 269
266 266 264 263 264 265 265 265 263 263 263 262 260 259 259 258 257 256 257 256 257 257 257 256 257 258 259 260 262 262 263 263 262 262 263 263 264 265 266 267 268 269 270
266 267 267 265 266 264 264 265 262 262 263 262 259 259 259 258 257 258 256 257 258 257 257 255 255 256 259 261 261 262 264 262 262 262 264 264 264 265 266 268 269 270 270
268 267 267 267 267 264 263 265 264 263 261 260 259 260 260 259 258 260 257 255 257 257 257 255 255 256 258 260 260 262 264 263 262 263 264 265 265 266 268 269 269 270 271
269 269 266 266 265 264 263 264 264 262 260 258 259 260 261 261 261 260 257 255 256 257 256 256 256 258 259 260 259 262 263 264 262 263 264 265 268 269 270 270 271 271 272
270 270 267 265 263 262 263 261 262 261 260 258 257 258 259 259 260 258 257 256 257 258 257 256 257 258 260 261 261 261 263 264 263 263 265 267 268 270 270 270 271 271 272
270 269 267 264 263 262 261 260 261 260 260 259 259 257 257 258 259 257 256 257 258 258 258 259 259 259 262 264 262 262 263 263 263 264 265 267 268 270 270 271 272 273 273
269 268 266 265 264 261 259 258 258 258 258 257 256 256 257 256 258 259 258 257 259 260 260 261 260 260 262 264 262 264 265 265 264 265 265 267 269 270 270 272 274 275 275
270 268 265 264 262 260 258 257 257 258 257 255 254 255 256 256 258 259 259 258 259 261 262 261 261 262 263 264 265 265 265 268 268 268 269 270 271 271 272 273 275 276 276
269 269 266 264 261 261 260 258 257 258 257 255 254 255 256 257 257 257 260 260 260 260 262 262 261 261 263 265 266 267 268 269 269 270 270 272 273 273 273 273 274 276 277
269 269 268 264 263 262 261 260 259 259 259 258 258 258 258 256 256 257 259 259 260 261 262 263 264 263 263 265 267 268 269 270 270 270 271 272 274 275 275 275 275 276 277
271 270 269 268 266 264 263 261 260 260 260 260 259 259 259 258 257 257 258 259 260 261 262 263 263 263 265 267 267 267 268 269 270 271 272 273 273 274 274 274 275 276 277
273 272 271 270 268 267 266 263 261 261 260 260 261 261 259 259 259 261 261 261 260 260 261 262 263 265 267 267 268 267 267 269 270 272 274 274 274 275 275 276 276 276 276
274 273 271 270 268 267 265 263 262 261 261 261 262 262 259 258 260 261 261 262 262 261 263 264 264 266 266 266 266 267 268 271 273 275 276 275 275 275 276 277 278 278 279
274 273 270 269 267 266 264 262 263 263 262 262 262 261 260 259 260 261 262 262 262 262 263 264 265 266 266 267 268 269 271 274 275 276 277 277 277 276 277 277 278 279 280
275 274 271 270 267 265 264 264 264 264 262 264 263 261 260 260 261 261 262 262 262 263 264 264 266 266 267 269 271 272 274 275 276 277 278 278 277 276 276 276 277 278 279
276 274 272 270 266 264 264 265 265 266 264 263 262 262 261 260 261 264 263 263 263 264 264 265 266 267 269 271 273 274 276 276 276 277 278 277 277 278 277 276 277 278 280
276 274 272 269 265 263 263 263 263 265 265 264 263 263 265 265 265 266 265 265 264 264 264 265 268 269 270 272 273 274 276 276 275 275 276 276 278 278 275 275 277 278 280
275 274 271 269 266 265 265 265 265 267 267 266 265 267 268 269 268 268 268 267 266 267 267 268 271 272 271 271 271 273 274 275 274 275 275 276 277 277 277 278 278 279 281
275 273 271 269 268 267 267 267 266 265 265 266 266 267 268 269 270 270 270 270 269 271 272 272 272 273 274 272 271 271 272 274 275 276 275 275 276 277 278 279 279 280 281
274 271 271 270 268 268 268 269 267 265 264 265 267 267 267 269 271 272 271 272 273 275 275 276 275 277 276 274 274 274 273 273 274 274 275 276 277 279 279 278 278 280 281
275 274 272 272 269 267 267 268 267 266 265 266 266 265 266 269 269 272 274 274 275 276 276 277 276 278 280 279 277 277 273 274 275 277 278 279 280 280 280 280 280 281 282
273 272 271 273 270 267 265 263 262 264 266 265 262 263 263 267 270 274 278 281 281 282 282 280 279 280 281 278 275 274 276 276 278 280 280 279 280 282 283 282 282 281 282
Height
5877 5877 5877 5877 5877 5877 5877 5877 5878 5878 5878 5878 5878 5878 5878 5879 5879 5879 5880 5880 5881 5882 5882 5882 5882 5883 5883 5883 5884 5884 5884 5885 5885 5885 5885 5885 5885 5885 5885 5885 5885 5884 5884
5871 5871 5872 5872 5872 5872 5873 5873 5873 5873 5873 5873 5874 5874 5874 5874 5875 5875 5875 5876 5876 5877 5878 5878 5878 5878 5879 5879 5879 5880 5880 5880 5881 5881 5881 5881 5881 5881 5881 5881 5881 5880 5880
5866 5866 5866 5866 5866 5867 5867 5868 5868 5868 5868 5869 5869 5869 5869 5869 5870 5870 5870 5871 5871 5872 5873 5873 5874 5874 5874 5874 5875 5875 5875 5875 5876 5876 5876 5876 5876 5876 5876 5876 5876 5876 5875
5861 5860 5861 5861 5861 5861 5861 5862 5862 5863 5863 5863 5864 5864 5864 5864 5865 5865 5866 5866 5866 5866 5867 5868 5868 5869 5869 5869 5869 5870 5870 5870 5871 5871 5871 5871 5871 5871 5871 5871 5870 5870 5870
5854 5854 5854 5854 5855 5855 5855 5855 5856 5857 5857 5857 5858 5858 5859 5859 5859 5860 5860 5860 5860 5861 5861 5862 5863 5863 5864 5864 5864 5864 5864 5865 5865 5865 5865 5865 5865 5865 5865 5865 5865 5864 5863
5847 5847 5847 5847 5848 5848 5848 5848 5849 5850 5850 5851 5851 5852 5852 5853 5853 5853 5854 5854 5855 5855 5856 5856 5857 5857 5858 5858 5858 5858 5858 5858 5859 5859 5859 5859 5859 5858 5858 5858 5858 5857 5857
5840 5840 5840 5840 5840 5840 5841 5842 5842 5843 5843 5844 5845 5845 5845 5846 5846 5847 5847 5848 5848 5849 5849 5850 5850 5851 5851 5852 5852 5852 5852 5852 5852 5852 5852 5852 5852 5851 5851 5851 5850 5850 5849
5833 5832 5832 5832 5832 5833 5833 5834 5835 5835 5836 5837 5838 5838 5838 5839 5839 5840 5840 5841 5841 5842 5842 5843 5843 5844 5844 5844 5844 5845 5845 5845 5845 5845 5844 5845 5844 5844 5843 5843 5842 5842 5841
5825 5824 5823 5823 5824 5825 5826 5826 5827 5828 5828 5829 5829 5831 5831 5832 5832 5832 5833 5834 5834 5835 5835 5836 5836 5836 5836 5837 5837 5837 5837 5837 5837 5837 5837 5837 5837 5836 5835 5835 5834 5833 5833
5816 5816 5815 5815 5816 5816 5817 5818 5819 5819 5820 5821 5821 5822 5823 5824 5824 5825 5826 5826 5826 5827 5828 5828 5828 5828 5829 5829 5829 5829 5829 5829 5829 5829 5828 5828 5828 5828 5827 5826 5825 5824 5823
5808 5808 5807 5807 5808 5807 5807 5809 5810 5811 5811 5812 5813 5814 5815 5816 5816 5818 5818 5819 5819 5819 5819 5820 5820 5820 5820 5821 5821 5821 5821 5821 5820 5820 5820 5820 5819 5818 5818 5817 5816 5815 5814
5800 5800 5799 5799 5799 5799 5800 5801 5802 5802 5803 5804 5805 5806 5807 5808 5808 5809 5810 5810 5811 5811 5811 5811 5811 5812 5812 5812 5812 5813 5812 5812 5812 5812 5811 5811 5810 5810 5809 5808 5807 5806 5805
5792 5791 5791 5791 5791 5791 5791 5792 5793 5794 5794 5795 5796 5797 5799 5800 5800 5800 5801 5801 5802 5803 5803 5803 5803 5803 5803 5803 5803 5804 5803 5803 5803 5803 5802 5802 5801 5800 5799 5799 5798 5796 5795
5783 5783 5783 5783 5783 5783 5783 5783 5784 5785 5786 5787 5787 5788 5790 5791 5791 5792 5792 5793 5794 5794 5794 5794 5794 5794 5794 5795 5795 5795 5794 5794 5794 5794 5793 5792 5792 5791 5790 5789 5788 5787 5785
5775 5775 5774 5774 5774 5774 5775 5775 5775 5776 5776 5777 5778 5780 5781 5782 5782 5783 5783 5784 5785 5785 5785 5785 5785 5785 5785 5786 5786 5786 5785 5785 5785 5784 5783 5782 5782 5781 5780 5779 5778 5777 5775
5768 5767 5766 5766 5766 5766 5766 5767 5767 5767 5768 5769 5770 5771 5771 5772 5773 5774 5774 5775 5776 5776 5776 5776 5776 5776 5776 5776 5776 5776 5776 5775 5775 5774 5773 5773 5772 5771 5770 5769 5768 5766 5765
5760 5759 5758 5758 5758 5758 5758 5759 5759 5760 5760 5760 5761 5762 5762 5764 5764 5765 5766 5766 5767 5767 5767 5767 5767 5767 5767 5767 5767 5767 5766 5766 5765 5765 5764 5763 5762 5761 5760 5759 5758 5757 5756
5752 5751 5750 5750 5750 5750 5750 5751 5751 5751 5752 5752 5753 5753 5754 5755 5755 5756 5757 5758 5758 5758 5759 5759 5759 5759 5759 5759 5758 5758 5757 5756 5756 5755 5754 5753 5753 5752 5751 5750 5749 5748 5747
5744 5743 5742 5742 5742 5742 5743 5743 5743 5744 5744 5744 5745 5746 5746 5747 5747 5748 5748 5749 5749 5750 5750 5750 5750 5750 5750 5750 5749 5749 5748 5747 5747 5746 5745 5744 5743 5743 5742 5741 5740 5740 5739
5736 5735 5735 5735 5735 5735 5735 5736 5736 5736 5737 5737 5738 5738 5738 5739 5739 5740 5740 5741 5741 5741 5741 5742 5742 5742 5741 5741 5741 5740 5740 5739 5738 5737 5736 5735 5734 5734 5733 5733 5732 5731 5730
5729 5728 5728 5728 5727 5728 5728 5728 5729 5729 5730 5730 5731 5731 5732 5732 5732 5732 5732 5733 5733 5733 5734 5734 5734 5733 5733 5733 5732 5731 5731 5730 5729 5728 5728 5727 5727 5726 5725 5725 5724 5723 5722
5722 5722 5722 5721 5721 5721 5722 5722 5723 5723 5723 5724 5725 5725 5725 5726 5725 5725 5725 5726 5726 5726 5727 5727 5726 5726 5726 5725 5724 5723 5722 5722 5721 5721 5720 5720 5719 5718 5718 5717 5717 5716 5715
5716 5716 5716 5716 5716 5716 5716 5717 5717 5718 5718 5719 5719 5720 5720 5720 5720 5720 5720 5720 5720 5720 5720 5720 5720 5719 5719 5718 5717 5716 5715 5714 5714 5714 5714 5714 5713 5712 5711 5710 5710 5709 5709
5712 5711 5711 5711 5711 5711 5711 5712 5712 5713 5713 5713 5714 5714 5715 5714 5714 5714 5715 5715 5714 5714 5714 5714 5714 5713 5712 5711 5711 5710 5709 5709 5709 5709 5708 5708 5707 5706 5706 5705 5704 5703 5703
5707 5707 5707 5706 5706 5707 5707 5707 5708 5708 5708 5709 5709 5710 5710 5710 5710 5710 5710 5710 5710 5709 5709 5708 5708 5707 5706 5706 5705 5705 5705 5704 5704 5704 5703 5703 5702 5702 5701 5700 5699 5698 5698
5704 5703 5703 5703 5703 5703 5703 5703 5704 5704 5704 5705 5705 5705 5706 5706 5706 5706 5706 5706 5706 5705 5705 5704 5703 5703 5702 5702 5701 5701 5701 5701 5700 5700 5699 5699 5698 5697 5697 5696 5695 5694 5694